TimeEST,TemperatureF,Dew PointF,Humidity,Sea Level PressureIn,VisibilityMPH,Wind Direction,Wind SpeedMPH,Gust SpeedMPH,PrecipitationIn,Events,Conditions,WindDirDegrees,DateUTC
12:54 AM,42.1,33.1,70,30.35,10.0,Calm,Calm,-,N/A,,Overcast,0,2013-12-01 05:54:00
1:13 AM,41.0,33.8,76,30.34,10.0,Calm,Calm,-,N/A,,Scattered Clouds,0,2013-12-01 06:13:00
1:54 AM,39.0,32.0,76,30.33,10.0,Calm,Calm,-,N/A,,Partly Cloudy,0,2013-12-01 06:54:00
2:54 AM,37.0,32.0,82,30.31,10.0,Calm,Calm,-,N/A,,Scattered Clouds,0,2013-12-01 07:54:00
3:54 AM,36.0,30.9,82,30.30,10.0,Calm,Calm,-,N/A,,Scattered Clouds,0,2013-12-01 08:54:00
4:54 AM,35.1,30.0,82,30.28,8.0,Calm,Calm,-,N/A,,Clear,0,2013-12-01 09:54:00
5:54 AM,34.0,28.9,82,30.28,7.0,Calm,Calm,-,N/A,,Clear,0,2013-12-01 10:54:00
6:54 AM,32.0,28.0,85,30.27,4.0,Calm,Calm,-,N/A,,Clear,0,2013-12-01 11:54:00
7:27 AM,30.2,26.6,86,30.27,2.0,Calm,Calm,-,N/A,,Clear,0,2013-12-01 12:27:00
7:38 AM,32.0,28.4,87,30.27,6.0,Calm,Calm,-,N/A,,Clear,0,2013-12-01 12:38:00
7:54 AM,34.0,30.0,85,30.27,4.0,Calm,Calm,-,N/A,,Clear,0,2013-12-01 12:54:00
8:54 AM,41.0,35.1,79,30.28,9.0,Calm,Calm,-,N/A,,Clear,0,2013-12-01 13:54:00
9:54 AM,48.0,37.0,66,30.27,10.0,Calm,Calm,-,0.00,Rain,Light Rain,0,2013-12-01 14:54:00
10:54 AM,51.1,35.1,54,30.23,10.0,WNW,5.8,-,0.00,Rain,Light Rain,290,2013-12-01 15:54:00
11:54 AM,52.0,34.0,50,30.19,10.0,WSW,4.6,-,0.00,Rain,Light Rain,250,2013-12-01 16:54:00
12:54 PM,53.1,33.1,47,30.16,10.0,SW,4.6,-,0.00,Rain,Light Rain,220,2013-12-01 17:54:00
1:54 PM,55.0,32.0,42,30.13,10.0,Calm,Calm,-,0.00,,Clear,0,2013-12-01 18:54:00
2:54 PM,55.9,33.1,42,30.11,10.0,Calm,Calm,-,0.00,,Clear,0,2013-12-01 19:54:00
3:54 PM,54.0,34.0,47,30.10,10.0,SW,4.6,-,0.00,Rain,Light Rain,230,2013-12-01 20:54:00
4:54 PM,48.0,35.1,61,30.10,10.0,ENE,4.6,-,0.00,Rain,Light Rain,60,2013-12-01 21:54:00
5:54 PM,44.1,37.9,79,30.10,10.0,Calm,Calm,-,0.00,,Clear,0,2013-12-01 22:54:00
6:54 PM,41.0,36.0,82,30.09,6.0,Calm,Calm,-,N/A,,Haze,0,2013-12-01 23:54:00
7:54 PM,37.9,34.0,86,30.09,6.0,Calm,Calm,-,N/A,,Clear,0,2013-12-02 00:54:00
8:46 PM,37.4,33.8,87,30.08,6.0,Calm,Calm,-,N/A,,Partly Cloudy,0,2013-12-02 01:46:00
8:54 PM,37.0,34.0,89,30.08,3.0,Calm,Calm,-,N/A,,Scattered Clouds,0,2013-12-02 01:54:00
9:54 PM,36.0,33.1,89,30.06,3.0,Calm,Calm,-,N/A,,Scattered Clouds,0,2013-12-02 02:54:00
10:01 PM,37.4,33.8,87,30.06,0.2,Calm,Calm,-,N/A,Fog,Fog,0,2013-12-02 03:01:00
10:54 PM,34.0,30.9,89,30.05,0.2,Calm,Calm,-,N/A,Fog,Fog,0,2013-12-02 03:54:00
11:54 PM,35.1,32.0,89,30.04,0.2,Calm,Calm,-,N/A,Fog,Fog,0,2013-12-02 04:54:00